Tracking 34406 objects as of 15-Jun-2026
HD Live streaming from Space Station
objects crossing your sky now

THORAD AGENA D DEB

Track THORAD AGENA D DEB now!
10-day predictions


NORAD ID: 4757
Int'l Code: 1970-025DF
Perigee: 1,017.4 km
Apogee: 1,038.3 km
Inclination: 99.4 °
Period: 105.6 minutes
Semi major axis: 7398 km
RCS: 0.042 m2 (small)
Launch date: April 8, 1970
Source: United States (US)
Launch site: AIR FORCE WESTERN TEST RANGE (AFWTR)

Note: This is SATELLITE DEBRIS
Your satellite tracking list
Your tracking list is empty




NASA's NSSDC Master Catalog

Two Line Element Set (TLE):
1  4757U 70025DF  26165.57084684  .00000347  00000-0  48820-3 0  9998
2  4757  99.3883  37.0878 0014138  87.1010 273.1751 13.64127490780415
Source of the keplerian elements: AFSPC